TITAN 3C TRANSTAGE DEB, 43284

Orbit data source: Space-Track

TITAN 3C TRANSTAGE DEB, 43284 is space debris in GEO originally from a launch on Sun, 09 Feb 1969 UTC launched from the Air Force Eastern Test Range (AFETR). Debris objects in space refer to the collection of defunct objects orbiting the Earth. Examples of debris include non-operational satellites, rocket bodies, and fragments generated from explosions, collisions, or faulty payload assembly.

Not visible in the next 10 days
Identifier
43284, 1969-013E
Orbit
GEO
Last TLE update
1 day ago
Origin
Manufacturer
Martin Marietta
Mission
Spacecraft
Bus & Motor
Unknown
Mass
Unknown
Launch date (UTC)
1969-02-09 (56 years ago)
Launch vehicle
Unknown
Launch site
Air Force Eastern Test Range (AFETR)
Object type
Payload
Rocket body
Debris
Shape & HBR
Unknown
Radar Cross Section
RCS unknown

Expand to show TLE details & history

TLE from 1 day ago
0 TITAN 3C TRANSTAGE DEB
1 43284U 69013E   25127.83051487 -.00000181  00000-0  00000-0 0  9994
2 43284   0.3056  54.1243 0143734  60.9235 246.4460  0.97232577 25356
Epoch: 2025-05-07T19:55Z
Definitive object data (Epoch: 2025-05-07T19:55:56.484Z)
Latitude
-0.22608°
Longitude
-164.89473°
Altitude
36,912.373 km
Speed
3.026 km/s
True Right ascension
00h 00m 00s
True Declination
0° 13' 33"
Sunlit
Object was in daylight at TLE epoch
Visualization TLE readout
Latitude
0.28805°
Longitude
-20.25021°
Altitude
36,123.074 km
Speed
3.082 km/s
Apparent Right ascension
09h 12m 32s
Apparent Declination
-5° 19' 46"
Sunlit
Object is in daylight
Visualization observer readout
Local Sidereal Time
14:31:18
Azimuth
259.275° W
Elevation
4.418°
Doppler factor
1
Orbital elements
Apogee altitude
37,280.391 km
Perigee altitude
36,043.132 km
Semi-major axis
43,039.899 km
Eccentricity
0.0143734
Inclination
0.3056°
RAAN
54.1243°
Arg. of periapsis
60.9235°
True anomaly
244.94709°
Mean anomaly
246.446°
Eccentric anomaly
245.69545°
Mean motion
0.24307 °/min
BSTAR
Unknown
Orbital period
1481.04 mins
Loading historical data...
43284 neighbors
Loading maneuver chart data...
Loading SW <> Apogee altitude chart data...

TITAN 3C TRANSTAGE DEB Visibility forecast

Observer location: undefined°, undefined°

TITAN 3C TRANSTAGE DEB is not visible in the next 10 days
Span
Click to sort rows by Start time (UTC) header in descending order
Start Az.
Max El. time (UTC)
Max El. Az.
Max El.
End time (UTC)
End Az.
|